[[{"header":{"parameterUnit":"m.s-1","parameterCategory":1,"la1":30.2991,"la2":30.254,"lo1":-89.0895,"lo2":-89.0444,"dy":0.0017,"dx":0.0017,"nx":28,"ny":28,"refTime":"2025-07-12T03:00:00:Z","depth":0,"parameterNumber":2,"parameterNumberName":"U-component_of_WINDS"},"data":[0,0,0,0,0,0,0,0,0,0,0,0,0,0,0,0,0,0,0,0,0,0,0,0,0,0,0,0,0,0,0,0,0,0,0,0,0,0,0,0,0,0,0,0,0,0,0,0,0,0,0,0,0,0,0,0,0,0,2.5286,2.5287,0,2.537,2.5371,2.5372,2.5338,2.5336,2.5334,2.5332,2.5426,2.543,2.5434,0,0,0,0,0,0,0,0,0,0,0,0,0,2.5101,2.5105,2.5286,2.5287,2.5288,2.537,2.5371,2.5372,2.5338,2.5335,2.5333,2.5331,2.5424,2.5429,2.5435,0,0,0,0,0,0,0,0,0,0,0,0,0,2.5183,2.5106,2.5285,2.528,2.5281,2.5369,2.5371,2.5372,2.5338,2.5335,2.5332,2.533,2.5423,2.5429,2.5435,2.5536,0,0,2.5456,2.5458,0,0,0,0,0,0,0,0,2.5179,2.519,2.528,2.5281,2.5281,2.534,2.534,2.5428,2.5339,2.5317,2.5332,2.5328,2.54,2.5408,2.5431,2.5541,2.5545,2.5456,2.546,2.5463,2.5465,0,0,0,0,0,0,0,2.5173,2.5186,2.5319,2.5281,2.5282,2.5276,2.5284,2.5357,2.5375,2.5319,2.5316,2.5326,2.54,2.5425,2.5433,2.5546,2.5456,2.5462,2.5466,2.5468,2.5741,2.5745,0,0,0,0,0,0,2.5166,2.5182,2.5316,2.5322,2.5221,2.5282,2.5291,2.5324,2.5374,2.5378,2.5329,2.5324,2.5415,2.5425,2.5436,2.5556,2.5463,2.5469,2.5473,2.5738,2.5742,2.5746,0,0,0,0,0,0,2.5163,2.5179,2.5313,2.5251,2.5268,2.5288,2.5326,2.5328,2.5352,2.5381,2.5385,2.535,2.5413,2.5427,2.5511,2.5559,2.5472,2.5478,2.5734,2.5739,2.5744,2.5797,0,0,0,0,0,0,2.5157,2.5177,2.5215,2.5252,2.5271,2.5384,2.5329,2.5331,2.5363,2.5358,2.5402,2.5407,2.5412,2.5501,2.5517,2.5566,2.5483,2.573,2.5737,2.5742,2.5791,2.5803,2.5814,0,0,0,0,0,2.5151,2.5229,2.5217,2.5233,2.5318,2.5387,2.5398,2.54,2.5367,2.5405,2.5423,2.5406,2.5551,2.551,2.5528,2.558,2.5727,2.5735,2.5742,2.5786,2.5801,2.5813,0,0,0,0,0,0,2.52,2.5233,2.5221,2.5312,2.5347,2.5381,2.543,2.5416,2.5463,2.5456,2.5459,2.5469,2.5555,2.5576,2.553,2.5679,2.5634,2.5646,2.5662,2.5676,2.5687,2.568,2.5489,0,0,0,0,0,2.522,2.5272,2.53,2.5378,2.5395,2.541,2.544,2.5438,2.5475,2.549,2.5515,2.5553,2.5607,2.5643,2.5695,2.5794,2.5803,2.5839,2.585,2.5859,2.5869,2.5921,2.5937,2.577,2.577,2.577,0,0,2.5265,2.529,2.5323,2.5388,2.5415,2.5469,2.5422,2.5483,2.5524,2.55,2.5579,2.5599,2.5642,2.5734,2.5775,2.5754,2.5917,2.5869,2.5876,2.588,2.5931,2.5946,2.596,2.5775,2.5774,2.5774,0,0,2.5374,2.5398,2.5464,2.5491,2.553,2.5539,2.5555,2.5591,2.5602,2.5681,2.5664,2.5714,2.5808,2.5838,2.5866,2.5985,2.597,2.6002,2.6061,2.6112,2.6125,2.6137,2.6177,2.6192,2.6012,2.6012,2.6012,0,2.5425,2.5504,2.5501,2.5562,2.5591,2.5569,2.5637,2.5664,2.572,2.5741,2.5716,2.5831,2.5859,2.5956,2.5984,2.6008,2.6027,2.5996,2.6123,2.6134,2.6145,2.6184,2.62,2.6015,2.6015,2.6015,2.6014,0,2.5564,2.562,2.5669,2.5719,2.5754,2.5819,2.5827,2.5863,2.5858,2.5869,2.595,2.5982,2.6039,2.6062,2.606,2.6159,2.6144,2.6121,2.6076,2.6165,2.6201,2.6216,2.602,2.6019,2.6018,2.6017,0,0,2.5707,2.5752,2.577,2.5792,2.5833,2.5876,2.594,2.5992,2.6023,2.6062,2.6116,2.6194,2.6172,2.6204,2.6204,2.6249,2.6339,2.622,2.6221,2.624,2.645,2.6466,2.6483,2.633,2.6332,2.6335,2.6445,0,2.5817,2.5924,2.5923,2.6024,2.6074,2.6054,2.6109,2.6141,2.6154,2.62,2.6216,2.627,2.6238,2.6256,2.63,2.6319,2.6381,2.6311,2.638,2.6383,2.6368,2.6502,2.652,2.6623,2.646,2.6462,2.6464,0,2.596,2.5999,2.6104,2.6135,2.6157,2.6206,2.6253,2.6297,2.6334,2.634,2.6374,2.6367,2.6433,2.6386,2.6477,2.6429,2.6458,2.6471,2.6475,2.6481,2.6428,2.651,2.6656,2.667,2.6487,2.6485,2.6484,0,2.6051,2.6131,2.6203,2.6223,2.6262,2.6296,2.6315,2.6348,2.6379,2.6421,2.6441,2.6492,2.6519,2.6559,2.6566,2.6532,2.6658,2.6612,2.6665,2.6665,2.6691,2.6689,2.6842,2.6712,2.6712,2.6712,2.6712,0,2.6173,2.6238,2.6244,2.6288,2.636,2.6359,2.643,2.6446,2.6475,2.6524,2.6511,2.6557,2.6564,2.6612,2.6619,2.6692,2.6706,2.6713,2.6714,2.6713,2.6712,2.6731,2.6724,2.6716,2.6715,2.6714,2.6714,0,2.6287,2.6293,2.637,2.6399,2.6408,2.646,2.6486,2.6529,2.654,2.6601,2.6615,2.6633,2.6689,2.67,2.6767,2.6772,2.6859,2.6853,2.6845,2.6844,2.6896,2.689,2.7065,2.7087,2.6944,2.6946,2.6947,0,2.6364,2.6412,2.6445,2.6475,2.6494,2.6543,2.6573,2.6574,2.6607,2.665,2.6688,2.6742,2.6785,2.6876,2.6896,2.6947,2.6942,2.7,2.695,2.6947,2.6941,2.6937,2.6941,2.7009,2.701,2.7012,2.7013,0,2.6499,2.6499,2.6541,2.6585,2.6621,2.6656,2.669,2.6715,2.6721,2.6759,2.6814,2.6847,2.6913,2.6967,2.7018,2.7039,2.7027,2.7028,2.7043,2.7042,2.7034,2.7037,2.6869,2.7024,2.7023,2.7022,2.7021,2.7021,2.6595,2.6636,2.6665,2.6713,2.6737,2.6768,2.6809,2.6823,2.6868,2.692,2.6919,2.6979,2.7014,2.708,2.7104,2.7153,2.7135,2.7157,2.7162,2.7167,2.717,2.7028,2.7163,2.7162,2.7162,2.7162,2.7161,0,2.6728,2.6745,2.6788,2.6833,2.6871,2.6854,2.689,2.6923,2.6975,2.7007,2.7048,2.7111,2.7162,2.7186,2.7237,2.7271,2.7267,2.7285,2.7281,2.7286,2.7185,2.7166,2.7287,2.7287,2.7287,2.7287,2.7287,2.7287,2.6801,2.6869,2.6872,2.6952,2.697,2.7026,2.7047,2.7076,2.7101,2.7171,2.7212,2.7226,2.7255,2.7307,2.7354,2.736,2.7379,2.7399,2.7402,2.7306,2.7294,2.7282,2.7264,2.7403,2.7404,2.7499,2.75,2.7501]},{"header":{"parameterUnit":"m.s-1","parameterCategory":1,"la1":30.2991,"la2":30.254,"lo1":-89.0895,"lo2":-89.0444,"dy":0.0017,"dx":0.0017,"nx":28,"ny":28,"refTime":"2025-07-12T03:00:00:Z","depth":0,"parameterNumber":3,"parameterNumberName":"V-component_of_WINDS"},"data":[0,0,0,0,0,0,0,0,0,0,0,0,0,0,0,0,0,0,0,0,0,0,0,0,0,0,0,0,0,0,0,0,0,0,0,0,0,0,0,0,0,0,0,0,0,0,0,0,0,0,0,0,0,0,0,0,0,0,1.7081,1.7082,0,1.7209,1.7211,1.7212,1.7234,1.7233,1.7232,1.7231,1.7359,1.7363,1.7368,0,0,0,0,0,0,0,0,0,0,0,0,0,1.6849,1.6853,1.708,1.7082,1.7084,1.7209,1.7211,1.7213,1.7234,1.7233,1.7232,1.723,1.7358,1.7363,1.7368,0,0,0,0,0,0,0,0,0,0,0,0,0,1.6961,1.6855,1.708,1.711,1.7114,1.7209,1.7211,1.7213,1.7235,1.7233,1.7231,1.723,1.7356,1.7362,1.7369,1.7442,0,0,1.7389,1.7392,0,0,0,0,0,0,0,0,1.6955,1.6969,1.7104,1.7108,1.7112,1.7204,1.7176,1.729,1.7235,1.7189,1.7231,1.7229,1.7309,1.7319,1.7347,1.7448,1.7454,1.739,1.7394,1.7397,1.7398,0,0,0,0,0,0,0,1.6947,1.6964,1.7131,1.7106,1.7111,1.7115,1.7129,1.7198,1.7256,1.7192,1.7194,1.721,1.7311,1.734,1.735,1.7456,1.7389,1.7395,1.7399,1.7402,1.7625,1.7627,0,0,0,0,0,0,1.6934,1.6957,1.7127,1.7135,1.7028,1.7121,1.7137,1.7176,1.7255,1.7266,1.7211,1.721,1.733,1.7342,1.7354,1.7446,1.7397,1.7403,1.7407,1.7623,1.7625,1.7627,0,0,0,0,0,0,1.6929,1.6949,1.7122,1.7047,1.7069,1.7127,1.7171,1.718,1.7209,1.7269,1.7279,1.7231,1.7329,1.7345,1.7421,1.7451,1.7406,1.7412,1.762,1.7623,1.7626,1.763,0,0,0,0,0,0,1.6922,1.6947,1.6977,1.7047,1.7073,1.7187,1.7173,1.7183,1.7221,1.7222,1.7291,1.73,1.7329,1.7411,1.7427,1.7459,1.7417,1.7618,1.7622,1.7625,1.7627,1.7633,1.7637,0,0,0,0,0,1.6914,1.6972,1.6978,1.6998,1.7111,1.7189,1.7204,1.7236,1.7224,1.7253,1.7292,1.7298,1.7445,1.7418,1.7437,1.7471,1.7616,1.7621,1.7625,1.7625,1.7632,1.7637,0,0,0,0,0,0,1.6901,1.6981,1.6989,1.7072,1.7124,1.7193,1.7231,1.7242,1.7298,1.7295,1.7332,1.7348,1.7421,1.7454,1.7423,1.7547,1.7529,1.7538,1.7523,1.753,1.7535,1.7525,1.7422,0,0,0,0,0,1.6908,1.6966,1.7032,1.7099,1.7124,1.7173,1.7208,1.7229,1.7284,1.7305,1.7349,1.7401,1.7459,1.7496,1.7552,1.7632,1.7647,1.7665,1.767,1.7674,1.768,1.7725,1.7734,1.7641,1.7641,1.7641,0,0,1.6923,1.6974,1.7008,1.7097,1.714,1.7198,1.7191,1.7253,1.7296,1.7314,1.7389,1.7423,1.7483,1.7561,1.7598,1.7591,1.7709,1.7679,1.7682,1.7687,1.7731,1.7739,1.7747,1.7644,1.7644,1.7643,0,0,1.6979,1.7024,1.7084,1.7128,1.7193,1.7225,1.7239,1.7307,1.7331,1.7407,1.7422,1.7473,1.7571,1.7614,1.7648,1.7721,1.7729,1.7738,1.7764,1.7807,1.7814,1.7821,1.7847,1.7856,1.7745,1.7745,1.7745,0,1.6989,1.7078,1.7113,1.7175,1.7214,1.7234,1.7295,1.7335,1.7414,1.744,1.7431,1.7556,1.7598,1.7687,1.7705,1.7732,1.7749,1.7731,1.7811,1.7818,1.7824,1.785,1.786,1.7746,1.7745,1.7745,1.7745,0,1.7087,1.7149,1.7189,1.7268,1.7311,1.7371,1.7415,1.7454,1.7471,1.7504,1.758,1.7632,1.7699,1.7721,1.7738,1.7812,1.7806,1.7803,1.7787,1.7833,1.7858,1.7868,1.7747,1.7746,1.7746,1.7746,0,0,1.7139,1.7236,1.7251,1.7287,1.736,1.7408,1.7469,1.7537,1.757,1.7624,1.7676,1.7759,1.7758,1.7797,1.7818,1.7856,1.7911,1.7849,1.7851,1.7859,1.7996,1.7998,1.8009,1.7917,1.7919,1.792,1.7991,0,1.7204,1.7316,1.735,1.7443,1.75,1.7521,1.7574,1.7624,1.7656,1.7709,1.7744,1.7802,1.7796,1.7819,1.7858,1.7896,1.7939,1.7891,1.7965,1.7967,1.795,1.8022,1.8024,1.8089,1.8001,1.8003,1.8004,0,1.7295,1.7353,1.7453,1.752,1.7545,1.7592,1.7657,1.7707,1.7764,1.7785,1.7829,1.7847,1.7911,1.7891,1.7979,1.7946,1.7978,1.8001,1.8004,1.8012,1.7989,1.8032,1.811,1.812,1.8019,1.8018,1.8017,0,1.7324,1.7426,1.7499,1.7529,1.7609,1.7642,1.7676,1.7732,1.7771,1.7827,1.7852,1.7914,1.7948,1.7995,1.8029,1.8011,1.8114,1.8097,1.8133,1.8132,1.8154,1.8152,1.8239,1.8174,1.8174,1.8174,1.8173,0,1.7393,1.7454,1.7513,1.7558,1.7626,1.7663,1.7729,1.7764,1.7813,1.7865,1.7885,1.7933,1.7975,1.8028,1.8055,1.8124,1.8139,1.8157,1.8164,1.8156,1.8154,1.8178,1.8174,1.8176,1.8176,1.8175,1.8175,0,1.7437,1.7479,1.756,1.7629,1.7648,1.7695,1.7754,1.7798,1.7831,1.7896,1.7913,1.7964,1.8028,1.8067,1.8147,1.8165,1.8241,1.8246,1.8222,1.8225,1.826,1.8256,1.8365,1.8381,1.8305,1.8305,1.8306,0,1.7478,1.7526,1.76,1.7637,1.7673,1.7731,1.7771,1.7809,1.785,1.7919,1.7954,1.8019,1.8074,1.8174,1.8218,1.8279,1.8285,1.8319,1.8294,1.8285,1.8286,1.8284,1.8289,1.8323,1.8324,1.8324,1.8325,0,1.7548,1.7567,1.7625,1.769,1.7737,1.779,1.7842,1.7871,1.7918,1.7962,1.8028,1.807,1.8153,1.8217,1.8282,1.8316,1.8329,1.8332,1.8344,1.8337,1.8322,1.8331,1.8234,1.833,1.8329,1.8329,1.8329,1.8328,1.7593,1.7636,1.7696,1.7759,1.7803,1.7852,1.7897,1.7936,1.7992,1.8064,1.8082,1.8151,1.8207,1.8297,1.8332,1.8386,1.8381,1.8398,1.8402,1.8406,1.8407,1.8313,1.8398,1.8398,1.8398,1.8398,1.8398,0,1.7664,1.7704,1.7762,1.7836,1.7886,1.7894,1.7952,1.7993,1.8054,1.8106,1.816,1.8236,1.8298,1.8347,1.8411,1.8445,1.8452,1.8461,1.8459,1.8467,1.8408,1.8391,1.8454,1.8454,1.8454,1.8454,1.8454,1.8454,1.7707,1.7781,1.7807,1.7902,1.7941,1.8011,1.8043,1.8088,1.813,1.8214,1.8267,1.8299,1.835,1.8418,1.8476,1.8488,1.8511,1.8519,1.8532,1.8477,1.8471,1.8465,1.845,1.8523,1.8523,1.8587,1.8588,1.8588]}]]